{"data":{"norad_id":45424,"intl_designator":"2020-020A","name":"ONEWEB-0066","alt_names":[],"object_type":"PAYLOAD","status":"ACTIVE","operator":null,"country":"UK","launch_date":"2020-03-21","launch_site_code":"TYMSC","launch_vehicle":null,"mission":null,"orbit_class":"UNKNOWN","rcs_meters":null,"size_class":null,"mass_kg":null,"dimensions":null,"purposes":["comms"],"wikipedia_slug":null,"has_3d_model":false,"image_url":null,"decayed_at":null,"tle_current":{"epoch":"2026-09-20T05:05:58.203744Z","epoch_age_seconds":39584,"freshness":"FRESH","line1":"1 45424U 20020A   26263.21247921 -.00000086  00000+0 -27853-3 0  9993","line2":"2 45424  87.8965   2.1786 0001882  97.7571 262.3770 13.11414194315132","mean_motion":13.11414194,"eccentricity":0.0001882,"inclination_deg":87.8965,"raan_deg":2.1786,"arg_perigee_deg":97.7571,"mean_anomaly_deg":262.377,"bstar":-0.00027853,"rev_number":31513,"period_min":109.80512538207,"perigee_km":1216.2637857836,"apogee_km":1219.1228563164,"semimajor_km":7595.83032105,"source":"CELESTRAK","updated_at":"2026-09-20T09:00:44.551952Z"}}}